Location: Villingen
(48.0639°N, 8.4609°E)
Time: 10:24:41
(UTC+02:00)

ISS - Visible Passes

Search period start: 28 May 2017 00:00
Search period end: 07 June 2017 00:00
Orbit: 402 x 408 km, 51.6° (Epoch: 28 May)

Date Brightness Start Highest point End Pass type
(mag) Time Alt. Az. Time Alt. Az. Time Alt. Az.
28 May -2.5 00:06:13 10° WNW 00:09:24 42° N 00:12:34 10° ENE visible
28 May -3.5 01:42:56 10° WNW 01:46:13 65° NNE 01:47:25 34° E visible
28 May -1.4 03:19:37 10° W 03:19:57 12° W 03:19:57 12° W visible
28 May -2.7 23:14:03 10° W 23:17:15 46° N 23:20:28 10° ENE visible
29 May -3.0 00:50:52 10° WNW 00:54:06 51° NNE 00:56:01 21° E visible
29 May -1.9 02:27:26 10° WNW 02:28:37 20° W 02:28:37 20° W visible
29 May -3.0 22:21:52 10° W 22:25:07 56° NNW 22:28:23 10° ENE visible
29 May -2.7 23:58:46 10° WNW 00:01:57 44° N 00:05:08 10° E visible
30 May -3.2 01:35:19 10° WNW 01:37:46 46° WNW 01:37:46 46° WNW visible
30 May -2.5 23:06:36 10° WNW 23:09:46 42° N 23:12:57 10° ENE visible
31 May -3.7 00:43:14 10° WNW 00:46:32 74° NNE 00:47:05 57° E visible
31 May -2.6 22:14:24 10° W 22:17:36 44° N 22:20:47 10° ENE visible
31 May -3.2 23:51:09 10° WNW 23:54:25 55° NNE 23:56:29 20° E visible
01 Jun -1.9 01:27:45 10° WNW 01:29:07 21° W 01:29:07 21° W visible
01 Jun -2.8 22:59:02 10° WNW 23:02:14 46° N 23:05:27 10° E visible
02 Jun -3.7 00:35:35 10° WNW 00:38:36 62° WSW 00:38:36 62° WSW visible
02 Jun -2.6 22:06:51 10° WNW 22:10:02 42° N 22:13:12 10° ENE visible
02 Jun -3.8 23:43:27 10° WNW 23:46:46 84° NNE 23:48:06 33° ESE visible
03 Jun -1.2 01:20:24 10° W 01:20:44 12° W 01:20:44 12° W visible
03 Jun -3.4 22:51:20 10° WNW 22:54:37 61° NNE 22:57:38 12° E visible
04 Jun -2.6 00:27:59 10° WNW 00:30:17 30° WSW 00:30:17 30° WSW visible
04 Jun -2.9 21:59:11 10° WNW 22:02:25 49° N 22:05:38 10° E visible
04 Jun -3.7 23:35:44 10° WNW 23:38:59 55° SSW 23:39:51 40° SSE visible
05 Jun -3.9 22:43:33 10° WNW 22:46:52 85° SSW 22:49:26 16° ESE visible
06 Jun -1.7 00:20:42 10° W 00:22:05 16° WSW 00:22:05 16° WSW visible
06 Jun -2.7 23:28:07 10° W 23:31:01 28° SW 23:31:42 26° SSW visible
